Simultaneous Nadir Overpasses (SNOs) Predictions

Prediction of SNOs between AQUA and METOP-A Satellite Orbit:

Table of predicted SNOs for the next 14.0 days since TLE Epoch: 10/19/2012
Index Date (AQUA) Time (AQUA) AQUA Lat,Lon Date (METOP-A) Time (METOP-A) METOP-A Lat,Lon Distance(km) Time Diff (sec)
1 10/20/2012 02:56:31 -73.33, -48.96 10/20/2012 02:55:23 -73.26, -50.96 64.52 68
2 10/20/2012 03:46:08 73.81, 117.64 10/20/2012 03:45:51 73.82, 117.66 1.35 17
3 10/20/2012 04:35:35 -73.90, -74.90 10/20/2012 04:36:32 -73.89, -74.87 1.49 57
4 10/22/2012 22:30:49 -73.54, 17.03 10/22/2012 22:29:38 -73.49, 15.95 34.56 71
5 10/22/2012 23:20:22 73.83,-175.95 10/22/2012 23:20:10 73.84,-175.88 2.88 12
6 10/23/2012 00:09:49 -73.90, -8.48 10/23/2012 00:10:51 -73.91, -8.40 2.59 62
7 10/25/2012 18:05:07 -73.71, 83.10 10/25/2012 18:03:54 -73.70, 82.84 8.32 73
8 10/25/2012 18:54:37 73.84,-109.55 10/25/2012 18:54:30 73.85,-109.46 2.89 7
9 10/25/2012 19:44:04 -73.92, 57.93 10/25/2012 19:45:11 -73.92, 58.04 3.23 67
10 10/28/2012 13:39:23 -73.78, 149.39 10/28/2012 13:38:12 -73.79, 149.48 2.82 71
11 10/28/2012 14:28:51 73.82, -43.05 10/28/2012 14:28:50 73.84, -43.07 2.38 1
12 10/28/2012 15:18:18 -73.89, 124.44 10/28/2012 15:19:31 -73.91, 124.43 3.10 73
13 10/31/2012 09:13:36 -73.76,-144.12 10/31/2012 09:12:31 -73.77,-144.16 1.61 65
14 10/31/2012 10:03:05 73.85, 23.32 10/31/2012 10:03:08 73.86, 23.41 3.00 3




NCC Satellite Simultaneous Nadir Overpasses (SNOs) Prediction Service
